#timestamp,LO_Frequency,Hit 
1498532415.9,286047031.7,N
1498532435.7,286047036.4,N
1498532455.5,286047034.1,N
1498532475.4,286047035.1,N
1498532495.2,286047037.5,N
1498532515.0,286047037.9,N
1498532515.9,286047037.9,N
1498532535.7,286047038.0,N
1498532555.6,286047034.9,N
1498532575.4,286047035.9,N
1498532595.2,286047038.1,N
1498532615.1,286047038.5,N
1498532616.0,286047038.5,N
1498532635.8,286047038.2,N
1498532655.6,286047035.6,N
1498532675.5,286047032.0,N
1498532695.3,286047036.2,N
1498532715.1,286047035.3,N
1498532735.9,286047036.7,N
1498532755.7,286047037.5,N
1498532775.5,286047039.1,N
1498532795.4,286047039.1,N
1498532815.2,286047041.0,N
1498532835.0,286047041.1,N
1498532835.9,286047041.1,N
1498532855.8,286047040.2,N
1498532875.6,286047040.8,N
1498532895.4,286047041.1,N
1498532915.2,286047039.9,N
1498532935.1,286047041.2,N
1498532936.0,286047041.2,N
1498532955.8,286047038.7,N
1498532975.6,286047039.2,N
1498532995.5,286047040.5,N
1498533015.3,286047041.4,N
1498533035.1,286047038.6,N
1498533055.9,286047041.6,N
1498533075.7,286047042.4,N
1498533095.5,286047045.9,N
1498533115.4,286047043.3,N
1498533135.2,286047039.7,N
1498533155.0,286047038.2,N
1498533155.9,286047038.2,N
1498533175.8,286047040.8,N
1498533195.6,286047036.6,N
1498533215.4,286047035.4,N
1498533235.2,286047038.9,N
1498533255.1,286047040.8,N
1498533256.0,286047040.8,N
1498533275.8,286047042.6,N
1498533295.6,286047038.2,N
1498533315.5,286047037.1,N
1498533335.3,286047039.5,N
1498533355.1,286047040.7,N
1498533375.9,286047045.6,N
1498533395.7,286047044.5,N
1498533415.5,286047045.9,N
1498533435.4,286047043.3,N
1498533455.2,286047043.6,N
1498533475.0,286047045.8,N
1498533475.9,286047045.8,N
1498533495.8,286047047.5,N
1498533515.6,286047045.0,N
1498533535.4,286047043.8,N
1498533555.3,286047043.5,N
1498533575.1,286047042.7,N
1498533576.0,286047042.7,N
1498533595.8,286047040.5,N
1498533615.6,286047042.3,N
1498533635.5,286047042.4,N
1498533655.7,286047040.9,N
1498533675.6,286047040.9,N
1498533695.4,286047042.8,N
1498533715.2,286047039.3,N
1498533735.1,286047040.8,N
1498533736.0,286047040.8,N
1498533755.8,286047040.2,N
1498533775.6,286047040.5,N
1498533795.5,286047042.0,N
1498533815.3,286047038.1,N
1498533835.1,286047039.8,N
1498533855.8,286047044.4,N
1498533875.7,286047041.8,N
1498533895.5,286047042.5,N
1498533915.3,286047041.8,N
1498533935.2,286047045.9,N
1498533955.0,286047043.4,N
1498533955.9,286047043.4,N
1498533975.7,286047043.0,N
1498533995.6,286047043.9,N
1498534015.4,286047043.7,N
1498534035.2,286047042.3,N
1498534055.1,286047040.3,N
1498534056.0,286047040.3,N
1498534075.8,286047042.7,N
1498534095.6,286047041.8,N
1498534115.5,286047041.8,N
1498534135.3,286047041.3,N
1498534155.1,286047046.0,N
1498534175.9,286047045.4,N
1498534195.7,286047043.5,N
1498534215.5,286047045.2,N
1498534235.4,286047041.6,N
1498534255.2,286047041.7,N
1498534275.0,286047047.1,N
1498534275.9,286047047.1,N
1498534295.8,286047050.5,N
1498534315.6,286047049.0,N
1498534335.4,286047048.5,N
1498534355.2,286047050.4,N
1498534375.1,286047048.5,N
1498534376.0,286047048.5,N
1498534395.8,286047048.9,N
1498534415.6,286047047.6,N
1498534435.5,286047044.7,N
1498534455.3,286047045.0,N
1498534475.1,286047046.2,N
1498534495.9,286047046.4,N
1498534515.7,286047050.6,N
1498534535.5,286047047.8,N
1498534555.4,286047047.0,N
1498534575.2,286047047.3,N
1498534595.0,286047046.2,N
1498534595.9,286047046.2,N
1498534615.8,286047048.2,N
1498534635.6,286047044.6,N
1498534655.4,286047045.3,N
1498534675.2,286047043.1,N
1498534695.1,286047046.0,N
1498534696.0,286047046.0,N
1498534715.8,286047047.5,N
1498534735.6,286047044.8,N
1498534755.5,286047044.5,N
1498534775.3,286047046.9,N
1498534795.1,286047047.3,N
1498534815.9,286047046.8,N
1498534835.7,286047044.5,N
1498534855.5,286047046.6,N
1498534875.4,286047048.1,N
1498534895.2,286047047.0,N
1498534915.0,286047046.1,N
1498534915.9,286047046.1,N
1498534935.8,286047047.4,N
1498534955.6,286047044.5,N
1498534975.4,286047046.9,N
1498534995.2,286047045.7,N
1498535015.1,286047041.9,N
1498535016.0,286047041.9,N
1498535035.8,286047041.9,N
1498535055.6,286047045.5,N
1498535075.5,286047045.9,N
1498535095.3,286047044.6,N
1498535115.1,286047043.6,N
1498535135.9,286047043.0,N
1498535155.7,286047045.2,N
1498535175.5,286047049.0,Y
1498535195.4,286047023.6,N
1498535215.2,286047023.6,N
1498535235.0,286047022.1,N
1498535235.9,286047022.1,N
1498535255.8,286047020.5,N
1498535275.6,286047024.8,N
1498535295.4,286047023.0,N
1498535315.3,286047020.8,N
1498535335.1,286047021.7,N
1498535336.0,286047021.7,N
1498535355.8,286047016.6,N
1498535375.7,286047014.3,N
1498535395.5,286047015.8,N
1498535415.3,286047015.7,N
1498535435.1,286047018.3,N
1498535455.9,286047016.0,N
1498535475.7,286047018.8,N
1498535495.5,286047022.0,N
1498535515.4,286047017.5,N
1498535535.2,286047020.0,N
1498535555.0,286047017.8,N
1498535555.9,286047017.8,N
1498535575.8,286047017.7,N
1498535595.6,286047019.8,N
1498535615.4,286047019.9,N
1498535635.3,286047016.1,N
1498535655.1,286047017.3,N
1498535656.0,286047017.3,N
1498535675.8,286047018.3,N
1498535695.7,286047017.5,N
1498535715.5,286047017.9,N
1498535735.3,286047019.1,N
1498535755.2,286047019.2,N
1498535775.9,286047021.4,N
1498535795.7,286047017.4,N
1498535815.5,286047016.0,N
1498535835.4,286047016.5,N
1498535855.2,286047016.6,N
1498535875.0,286047017.5,N
1498535875.9,286047017.5,N
1498535895.8,286047018.4,N
1498535915.6,286047017.0,N
1498535935.4,286047018.7,N
1498535955.3,286047018.4,N
1498535975.1,286047018.5,N
1498535995.8,286047018.2,N
